This is the latest recevied weather packets stored in our database for station/object KD2VWU. If no packets are shown the sender has not sent any weather packets the latest 10 day(s).
| Time | Temp. | Humidity | Pressure | Rain* | Wind** | Luminosity | Snow |
|---|---|---|---|---|---|---|---|
| 1777863793 | 8.33° C | 60% | 1008.9 hPa | 0 mm | - | - | - |
| 1777863488 | 8.33° C | 60% | 1009 hPa | 0 mm | - | - | - |
| 1777863186 | 8.89° C | 57% | 1008.9 hPa | 0 mm | - | - | - |
| 1777862882 | 8.89° C | 54% | 1008.7 hPa | 0 mm | - | - | - |
| 1777862579 | 9.44° C | 52% | 1008.9 hPa | 0 mm | - | - | - |
| 1777862275 | 9.44° C | 51% | 1008.9 hPa | 0 mm | - | - | - |
| 1777861972 | 9.44° C | 52% | 1008.8 hPa | 0 mm | - | - | - |
| 1777861668 | 8.89° C | 53% | 1008.9 hPa | 0 mm | - | - | - |
| 1777861364 | 8.89° C | 52% | 1009.2 hPa | 0 mm | - | - | - |
| 1777861061 | 9.44° C | 52% | 1009 hPa | 0 mm | - | - | - |
| 1777860759 | 10° C | 51% | 1008.9 hPa | 0 mm | - | - | - |
| 1777860456 | 10° C | 49% | 1008.8 hPa | 0 mm | - | - | - |
| 1777860152 | 10° C | 48% | 1008.9 hPa | 0 mm | - | - | - |
| 1777859848 | 10° C | 49% | 1008.9 hPa | 0 mm | - | - | - |
| 1777859545 | 10° C | 48% | 1008.7 hPa | 0 mm | - | - | - |
| 1777859240 | 10° C | 49% | 1008.9 hPa | 0 mm | - | - | - |
| 1777858937 | 10° C | 49% | 1008.7 hPa | 0 mm | - | - | - |
| 1777858635 | 10° C | 49% | 1009 hPa | 0 mm | - | - | - |
| 1777858333 | 10° C | 49% | 1008.9 hPa | 0 mm | - | - | - |
| 1777858029 | 10° C | 48% | 1008.9 hPa | 0 mm | - | - | - |
| 1777857727 | 10° C | 47% | 1008.8 hPa | 0 mm | - | - | - |
| 1777857424 | 10° C | 48% | 1008.7 hPa | 0 mm | - | - | - |
| 1777857120 | 10° C | 50% | 1008.7 hPa | 0 mm | - | - | - |
| 1777856816 | 10° C | 47% | 1008.5 hPa | 0 mm | - | - | - |
| 1777856512 | 10° C | 45% | 1008.6 hPa | 0 mm | - | - | - |
* Rain latest hour (hover to see other rain measurements)
** Current wind speed in m/s (hover to see current wind gust speed)